Flag for Switzerland Weather past 2 weeks in Sion, Valais, Switzerland

Now
68 °F

Mild.


Feels Like: 68 °F
Forecast: 55 / 67 °F
Wind: 3 mph from West

Location: Sion

Current Time: May 5, 2015 at 6:27:47 PM

Latest Report: May 5, 2015 at 5:00 PM


Visibility: N/A

Pressure: 29.78 "Hg

Humidity: 70%

Dew point: 58 °F

Location of SionLocation

Historic Weather in Sion — Graph

°F

Sion temperature yesterday

Maximum temperature yesterday: 66 °F (at 5:00 PM)
Minimum temperature yesterday: 57 °F (at 6:00 AM)
Average temperature yesterday: 61 °F

Past Weeks' High & Low Weather Summary

 TemperatureHumidityPressure
High78 °F (Apr 22, 5:00 PM)96% (May 3, 11:00 PM)30.34 "Hg (May 3, 11:00 PM)
Low38 °F (Apr 29, 7:00 AM)19% (Apr 23, 6:00 PM)29.38 "Hg (Apr 27, 3:00 PM)
Average58 °F65%29.93 "Hg
* Reported Apr 20 5:00 PM — May 5 5:00 PM, Sion, Weather by CustomWeather, © 2015

Note: Actual official high and low records may vary slightly from our data, if they occured in-between our weather recording intervals... More about our weather records

Advertising

Sion weather history for previous 24 hours

 ConditionsComfort  
Time TempWeatherWind HumidityBarometerVisibility
5:00 PM
Tue, May 5
68 °FMild.3 mph70%29.78 "HgN/A
4:00 PM68 °FMild.5 mph73%29.80 "HgN/A
3:00 PM67 °FMild.8 mph78%29.83 "HgN/A
2:00 PM68 °FRain. Overcast.3 mph77%29.80 "Hg9 mi
1:00 PM68 °FMild.2 mph75%29.80 "HgN/A
12:00 PM69 °FMild.2 mph59%29.79 "HgN/A
11:00 AM66 °FOvercast.1 mph69%29.80 "Hg9 mi
10:00 AM64 °FMild.3 mph72%29.80 "HgN/A
9:00 AM61 °FCool.5 mph78%29.81 "HgN/A
8:00 AM59 °FOvercast.3 mph84%29.83 "Hg9 mi
7:00 AM58 °FCool.3 mph81%29.80 "HgN/A
6:00 AM56 °FCool.2 mph90%29.81 "HgN/A
5:00 AM57 °FPassing clouds.1 mph86%29.80 "Hg9 mi
4:00 AM58 °FCool.7 mph83%29.81 "HgN/A
3:00 AM56 °FCool.3 mph91%29.85 "HgN/A
2:00 AM56 °FPassing clouds.1 mph89%29.85 "Hg9 mi
1:00 AM56 °FCool.2 mph94%29.85 "HgN/A
12:00 AM56 °FCool.1 mph94%29.85 "HgN/A
11:00 PM
Mon, May 4
57 °FPassing clouds.2 mph94%29.85 "Hg9 mi
10:00 PM61 °FCool.3 mph90%29.85 "HgN/A
9:00 PM62 °FCool.2 mph92%29.86 "HgN/A
8:00 PM64 °FMild.2 mph88%29.82 "HgN/A
7:00 PM66 °FMild.5 mph78%29.82 "HgN/A
6:00 PM66 °FMild.3 mph72%29.84 "HgN/A
Weather by CustomWeather, © 2015

See weather overviewHow to use our weather pages